Regional Weather Roundup
Issued by NWS

Home | Current Version | Previous Version | Graphics & Text | Print | Product List | Glossary On
Versions: 1 2 3 4 5 6 7 8 9 10 11 12 13 14 15 16 17 18 19 20 21 22 23 24 25 26 27 28 29 30 31 32 33 34 35 36 37 38 39 40 41 42 43 44 45 46 47 48 49 50
000
ASUS43 KMPX 141001
RWRMN
WEATHER ROUNDUP FOR MINNESOTA
NATIONAL WEATHER SERVICE TWIN CITIES/CHANHASSEN MN
400 AM CST SUN FEB 14 2016


NOTE: "FAIR" INDICATES FEW OR NO CLOUDS BELOW 12,000 FEET WITH NO
SIGNIFICANT WEATHER AND/OR OBSTRUCTIONS TO VISIBILITY. N/A MEANS
CURRENT SKY AND/OR WEATHER CONDITIONS ARE NOT AVAILABLE.

MNZ060>063-068>070-141100-
   Twin Cities Metro

CITY           SKY/WX    TMP DP  RH WIND       PRES   REMARKS
TWIN CITIES    CLOUDY     9  -3  58 SE10      30.18F WCI  -5
ST PAUL        CLOUDY    10  -3  55 SE12      30.20F WCI  -5
CRYSTAL        CLOUDY    11  -3  53 SE10      30.15F WCI  -3
BLAINE         CLOUDY    12  -2  52 SE13      30.16F WCI  -3
LAKEVILLE      CLOUDY    10   1  67 SE7       30.15F WCI   0
EDEN PRAIRIE   CLOUDY    12   0  58 E13       30.14F WCI  -3
SOUTH ST PAUL  CLOUDY    10  -4  53 SE6       30.19F WCI   1
LAKE ELMO      CLOUDY    12  -4  48 E6        30.19F WCI   3
$$
MNZ001>005-007-008-013>017-022>024-027-028-141100-
   Northwest Minnesota

CITY           SKY/WX    TMP DP  RH WIND       PRES   REMARKS
BEMIDJI        CLOUDY     6  -4  62 SE10      30.00F WCI  -8
HALLOCK        LGT SNOW  12   9  85 SE18      29.93F WCI  -5
ROSEAU         CLOUDY    10   3  72 S14       29.97F WCI  -5
WARROAD        CLOUDY     9   1  72 S12       29.98F WCI  -6
THIEF RVR FALL CLOUDY    12   5  73 SE14      29.95F WCI  -3
CROOKSTON      CLOUDY    12   9  85 S22       29.96F WCI  -7
FOSSTON        CLOUDY     9   1  72 SE12      29.96F WCI  -6
DETROIT LAKES  CLOUDY    12   5  73 S17       29.97S WCI  -5
MOORHEAD       MIX PCPN  12   9  85 S20       29.97F WCI  -6
PARK RAPIDS    LGT SNOW   9  -2  61 SE17      29.99F WCI  -9
MAHNOMEN       CLOUDY    10   4  75 SE9       29.97F WCI  -2
$$
MNZ006-009>011-018-025>026-141100-
   North Central Minnesota

CITY           SKY/WX    TMP DP  RH WIND       PRES   REMARKS
BAUDETTE       CLOUDY     5 -10  50 SE13      30.01F WCI -12
FLAG ISLAND    FLURRIES   3  -4  72 S21       29.99F WCI -18
INTL FALLS     CLOUDY   -10 -18  67 SE8       30.08F WCI -26
WASKISH        CLOUDY     7  -6  56 SE7       30.02F WCI  -5
LONGVILLE      CLOUDY     7  -8  51 SE10      30.06F WCI  -8
GRAND RAPIDS   CLOUDY     1 -11  55 SE6       30.09F WCI -10
CRANE LAKE     CLOUDY   -22 -27  76 CALM      30.18F
ORR            CLOUDY    -4 -17  54 CALM      30.09F
COOK           CLOUDY    -4 -13  65 SE6       30.14F WCI -16
WALKER         CLOUDY     6  -7  56 SE7       30.04F WCI  -6
$$
MNZ012-019>021-037-141100-
   Northeast Minnesota

CITY           SKY/WX    TMP DP  RH WIND       PRES   REMARKS
DULUTH         CLOUDY    -2 -14  56 SE7       30.16F WCI -15
ELY            CLOUDY   -20 -27  69 CALM      30.17F
HIBBING        CLOUDY   -12 -18  74 SE3       30.14F
EVELETH        CLOUDY   -22 -27  76 NE5       30.16F WCI -36
DULUTH HARBOR  CLOUDY     0  -8  71 CALM      30.26F
TWO HARBORS    CLOUDY   -15 -20  76 CALM      30.19F
SILVER BAY     CLOUDY   -20 -26  76 CALM      30.21F
GRAND MARAIS     N/A     16   3  56 SW16      30.28F WCI   1
G MARAIS ARPRT CLOUDY     1  -6  71 S5        30.17S WCI  -8
$$
MNZ029>031-032-039>041-046>048-054>057-064-141100-
   West Central Minnesota

CITY           SKY/WX    TMP DP  RH WIND       PRES   REMARKS
FERGUS FALLS   LGT SNOW  10   7  85 SE16G23   30.01F WCI  -7
WHEATON        LGT SNOW  12  10  92 SE21G26   29.97F VSB 1   WCI  -6
MORRIS         LGT SNOW  10   9  92 SE21      29.98F WCI  -9
ALEXANDRIA     LGT SNOW   9   3  77 SE15      30.00F WCI  -8
ELBOW LAKE     LGT SNOW  11   7  83 E16G24    29.98F WCI  -5
WADENA         CLOUDY     9   0  66 SE13      30.00F WCI  -7
GLENWOOD       FLURRIES  10   7  85 SE13      30.02F WCI  -5
APPLETON       LGT SNOW  14   9  79 SE14      29.99F WCI  -1
BENSON         FLURRIES  12   7  79 S12       30.01F WCI  -2
ORTONVILLE     LGT SNOW  12   9  85 SE12G20   29.96F WCI  -2
MADISON        LGT SNOW  14  10  85 S18       29.98F WCI  -3
WILLMAR        CLOUDY    12   9  85 SE18      30.04F WCI  -5
$$
MNZ033>034-036-042>043-049>051-058-059-141100-
   Central Minnesota

CITY           SKY/WX    TMP DP  RH WIND       PRES   REMARKS
ST CLOUD       CLOUDY    10  -3  55 SE12      30.10F WCI  -5
SAUK CENTRE    FLURRIES   9   3  75 SE12G18   30.04F WCI  -6
PAYNESVILLE    CLOUDY    11   4  75 SE12G20   30.06F WCI  -4
AITKIN         CLOUDY     9  -9  43 SE9       30.09F WCI  -5
PINE RIVER     CLOUDY     7  -4  61 SE10      30.08F WCI  -8
BRAINERD       CLOUDY     7  -5  57 SE5       30.08F WCI  -2
STAPLES        CLOUDY     9  -4  56 SE10      30.03F WCI  -6
LONG PRAIRIE   CLOUDY     9   1  72 E9G16     30.04F WCI  -5
LITTLE FALLS   CLOUDY    10  -2  56 SE10G16   30.08F WCI  -3
LITCHFIELD     CLOUDY    12   7  79 SE12G21   30.08F WCI  -2
BUFFALO        CLOUDY    10  -1  61 E10       30.13F WCI  -3
MAPLE LAKE     CLOUDY    12   2  65 E9        30.11F WCI  -1
$$
MNZ037-044-045-052-053-141100-
   East Central Minnesota

CITY           SKY/WX    TMP DP  RH WIND       PRES   REMARKS
PRINCETON      CLOUDY    10  -2  56 SE10      30.14F WCI  -3
MORA           CLOUDY     7  -6  56 SE7       30.18F WCI  -5
CAMBRIDGE      CLOUDY    10  -2  56 CALM      30.15F
RUSH CITY      CLOUDY     8  -6  52 SE7       30.18F WCI  -3
MOOSE LAKE     CLOUDY     3 -11  51 CALM      30.15F
HINCKLEY       CLOUDY     5  -6  61 SE5       30.18F WCI  -4
CLOQUET        CLOUDY    -4 -17  54 E3        30.15F
MCGREGOR       CLOUDY     5  -8  56 SE8       30.13F WCI  -8
$$
MNZ071>073-080-081-089-090-097-098-141100-
   Southwest Minnesota

CITY           SKY/WX    TMP DP  RH WIND       PRES   REMARKS
MONTEVIDEO     LGT SNOW  12   9  85 S13G18    30.02F WCI  -3
GRANITE FALLS  LGT SNOW  14  11  87 SE18      30.03F WCI  -3
CANBY          LGT SNOW  17  13  82 SE17      29.98F WCI   1
MARSHALL       LGT SNOW  13  10  88 S20       29.98F FOG     WCI  -5
REDWOOD FALLS  CLOUDY    13   9  84 SE21      30.04F WCI  -5
OLIVIA         CLOUDY    16  10  79 SE14G23   30.03F WCI   1
PIPESTONE      LGT SNOW  12   5  73 S15G21    29.91F WCI  -4
WINDOM         LGT SNOW  12   9  85 SE18G24   30.00F WCI  -5
WORTHINGTON    CLOUDY    10   7  85 SE20      29.96F WCI  -8
JACKSON        LGT SNOW  14  10  85 SE17      30.00F WCI  -3
TRACY          LGT SNOW  14  11  86 S17G23    29.98F VSB 3/4 WCI  -2
SLAYTON        LGT SNOW  11  10  95 SE21      29.95F WCI  -7
$$
MNZ065>067-074>077-082>085-091>093-141100-
   South Central Minnesota

CITY           SKY/WX    TMP DP  RH WIND       PRES   REMARKS
MANKATO        CLOUDY    12   7  79 SE20      30.08F WCI  -6
NEW ULM        FLURRIES  10   7  85 SE15      30.05F WCI  -6
ST JAMES       FLURRIES  12  10  92 SE17      30.06F WCI  -5
FAIRMONT       CLOUDY    12   7  79 SE18      30.03F WCI  -5
GLENCOE        CLOUDY    13   9  82 E14G20    30.09F WCI  -2
FARIBAULT      CLOUDY    12   5  73 SE9       30.15F WCI   0
OWATONNA       CLOUDY    12   5  73 SE18      30.11F WCI  -5
WASECA         CLOUDY    12   9  85 SE15      30.11F WCI  -4
ALBERT LEA     CLOUDY    12   7  79 SE18      30.09F WCI  -5
$$
MNZ078>079-086>088-094>096-141100-
   Southeast Minnesota

CITY           SKY/WX    TMP DP  RH WIND       PRES   REMARKS
ROCHESTER      CLOUDY     8   0  69 SE16      30.15F WCI -10
STANTON        CLOUDY    13   1  59 SE7       30.15F WCI   3
DODGE CENTER   CLOUDY     9   3  78 SE17      30.12F WCI -10
WINONA         CLOUDY    10   0  61 SE9       30.27F WCI  -2
AUSTIN         FLURRIES  10   7  85 SE10      30.12F WCI  -3
PRESTON        CLOUDY     8   0  68 SE12      30.17F WCI  -7
$$
ABBREVIATIONS USED IN REMARKS
   TC - TEMPERATURES IN CELSIUS
  WCI - WIND CHILL INDEX
   HX - HEAT INDEX
  VSB - VISIBILITY
$$



USA.gov is the U.S. government's official web portal to all federal, state and local government web resources and services.